Regional Weather Roundup
Issued by NWS

Home | Current Version | Previous Version | Text Only | Print | Product List | Glossary On
Versions: 1 2 3 4 5 6 7 8 9 10 11 12 13 14 15 16 17 18 19 20 21 22 23 24 25 26 27 28 29 30 31 32 33 34 35 36 37 38 39 40 41 42 43 44 45 46 47 48 49 50
000
ASUS43 KDTX 010710
RWRMI
MICHIGAN HOURLY REGIONAL WEATHER ROUNDUP
NATIONAL WEATHER SERVICE DETROIT/PONTIAC MI
300 AM EDT MON MAY 01 2017

NOTE: "FAIR" INDICATES FEW OR NO CLOUDS BELOW 12,000 FEET WITH NO
SIGNIFICANT WEATHER AND/OR OBSTRUCTION TO VISIBILITY.

MIZ047>049-052>055-059>063-066>070-074>076-081>083-010800-
SOUTHEAST LOWER MICHIGAN

CITY           SKY/WX    TMP DP  RH WIND       PRES   REMARKS
ADRIAN         CLOUDY    55  55 100 SE10      29.64F FOG
ALMA           CLOUDY    43  43  99 NE7       29.68F
ANN ARBOR      LGT RAIN  54  54 100 MISG      29.66F VSB 1/4
BAD AXE        CLOUDY    42  42  99 E3        29.72F
CARO           CLOUDY    42  42 100 NE3       29.69F
DETROIT CITY   CLOUDY    50  49  96 E6        29.70F
DETROIT        FOG       53  53 100 E7        29.69F VSB 1/8
FLINT          CLOUDY    47  46  97 NE7       29.67F
GROSSE ILE     CLOUDY    52  51  97 E5        29.67F
HILLSDALE      MOCLDY    57  55  94 SE6       29.62F FOG
HOWELL         CLOUDY    55  53  94 SE12      29.63F FOG

CITY           SKY/WX    TMP DP  RH WIND       PRES   REMARKS
JACKSON        CLOUDY    56  55  97 SE10      29.62F
LAMBERTVILLE   CLOUDY    55  54  98 E6        29.65F FOG
LANSING        LGT RAIN  45  42  89 NE8       29.63F VSB 3/4
LAPEER         CLOUDY    46  46  99 CALM      29.69F FOG
MASON          FOG       49  49 100 E6        29.62F VSB 1/4
MONROE         RAIN      53  52  98 E8        29.67F
MT. CLEMENS    CLOUDY    50  50 100 E6        29.69F FOG
PONTIAC        FOG       51  50  96 SE9       29.67F VSB 1/4
PORT HOPE        N/A     41  41 100 NE12      29.72F
PORT HURON     CLOUDY    46  45  93 CALM      29.71F FOG
TRI CITIES     CLOUDY    44  44 100 NE12      29.70F
MIDLAND        CLOUDY    42  40  93 NE8       29.70F
TROY           CLOUDY    51  50  96 E7        29.71F FOG
SAGINAW HB     CLOUDY    43  39  87 NE9       29.69F
$$
MIZ043>046-050>051-056>058-064>065-071>073-077>080-010800-
SOUTHWEST LOWER MICHIGAN

CITY           SKY/WX    TMP DP  RH WIND       PRES   REMARKS
BATTLE CREEK   FOG       54  54 100 CALM      29.59F VSB 3/4
BENTON HARBOR  LGT RAIN  65  62  90 S10       29.52S FOG
BIG RAPIDS     FLURRIES  38  37  92 E13       29.63F WCI  31
COLDWATER      CLOUDY    62  62 100 SE9       29.59F
FREMONT        CLOUDY    40  39  97 E12G18    29.59F WCI  33
HOLLAND        LGT RAIN  46  44  93 E12       29.56F FOG
GRAND RAPIDS   FOG       44  44 100 E16       29.59F VSB 3/4
IONIA          FOG       42  42  99 NE13G18   29.62F VSB 3/4
KALAMAZOO      CLOUDY    57  54  89 E5        29.57F FOG
LUDINGTON      CLOUDY    40  39  99 E18       29.57F WCI  30
MARSHALL       CLOUDY    58  58  98 E8        29.59F
MOUNT PLEASANT CLOUDY    39  38  94 NE6       29.68F WCI  35
MUSKEGON       LGT RAIN  44  43  96 E13       29.55F
SOUTH HAVEN    RAIN      55  54  99 SE7       29.53F
$$
MIZ016>042-010800-
NORTHERN LOWER MICHIGAN

CITY           SKY/WX    TMP DP  RH WIND       PRES   REMARKS
ALPENA         LGT RAIN  38  38 100 E9        29.79F WCI  31
BEAVER ISLAND  CLOUDY    37  37  97 E16G23    29.74F WCI  28
BELLAIRE       MIX PCPN  38  35  89 NE7       29.69F WCI  33
CADILLAC       LGT RAIN  37  36  96 E13       29.64F WCI  28
CHARLEVOIX     LGT RAIN  38  37  95 E10G17    29.73F WCI  31
FRANKFORT      LGT RAIN  38  35  88 E10G21    29.60F WCI  32
GAYLORD        LGT RAIN  37  34  89 E8G16     29.71F WCI  31
GRAYLING       MIX PCPN  36  35  96 E12G17    29.69F WCI  28
HARBOR SPRINGS LGT RAIN  37  37  97 E17G28    29.71F WCI  28
HOUGHTON LAKE  LGT RAIN  37  35  92 E16       29.68F FOG     WCI  28
MANISTEE       RAIN      39  38  96 E16G24    29.57F FOG     WCI  30
OSCODA         MIX PCPN  40  39  96 NE9       29.75F WCI  34
ROGERS CITY    MIX PCPN  37  36  96 E12G21    29.81F WCI  29
TRAVERSE CITY  RAIN      39  37  92 NE6       29.67F FOG     WCI  35
$$
MIZ007>008-015-010800-
EASTERN UPPER MICHIGAN

CITY           SKY/WX    TMP DP  RH WIND       PRES   REMARKS
KINROSS        CLOUDY    38  35  89 E16G22    29.78F WCI  29
MACKINAC ISLAN CLOUDY    37  37 100 E12G21    29.76F WCI  29
NEWBERRY       CLOUDY    37  37  97 E12       29.78F WCI  30
S. S. MARIE    CLOUDY    41  35  79 E9G17     29.79F
MUNISING         N/A     41  36  82 E9G17     29.77F
$$
MIZ004>006-011>014-085-010800-
CENTRAL UPPER MICHIGAN

CITY           SKY/WX    TMP DP  RH WIND       PRES   REMARKS
MANISTIQUE     CLOUDY    38  37  94 E12G20    29.75F WCI  31
ESCANABA       LGT RAIN  39  36  89 E15       29.73F WCI  31
MENOMINEE      RAIN      38  36  92 E21G29    29.65F WCI  28
SAWYER-GWINN   CLOUDY    38  35  87 E6        29.76F WCI  34
$$
MIZ001>003-009>011-084-010800-
WESTERN UPPER MICHIGAN

CITY           SKY/WX    TMP DP  RH WIND       PRES   REMARKS
IRON MOUNTAIN  LGT RAIN  38  33  82 E9G17     29.68F WCI  31
HOUGHTON       LGT RAIN  38  28  67 E9        29.75F WCI  31
COPPER HARBOR    N/A     41  32  70 VRB3      29.80F
IRONWOOD       LGT RAIN  40  30  67 E16G22    29.69F WCI  31
$$

ABBREVIATIONS USED IN REMARKS
   TC - TEMPERATURE IN CELSIUS
  WCI - WIND CHILL INDEX
   HX - HEAT INDEX
  VSB - VISIBILITY




USA.gov is the U.S. government's official web portal to all federal, state and local government web resources and services.